Zurück zum Katalog

FENGYUN 1C DEB

AktivPO
NORAD 38798·DEBRIS·🇨🇳 China

Gestartet May 10, 1999 von Taiyuan Satellite Launch Center

Loading…

Nächste Überflüge (nächste 24 Stunden)

TLE

AlterndSource: Space-Track

Epoche: Sep 6, 2026, 00:17 UTC

1 38798U 99025EUN 26249.01207672  .00000351  00000-0  52490-3 0  9990
2 38798  98.8255 341.4546 0410027 160.7230 200.9933 13.29242310222856

Verfolge FENGYUN 1C DEB in Echtzeit mit AllMySat

Download on the App Store